Regional Weather Roundup
Issued by NWS Kansas City/Pleasant Hill, MO

Home | Current Version | Previous Version | Text Only | Print | Product List | Glossary On
Versions: 1 2 3 4 5 6 7 8 9 10 11 12 13 14 15 16 17 18 19 20 21 22 23 24 25 26 27 28 29 30 31 32 33 34 35 36 37 38 39 40 41 42 43 44 45 46 47 48 49 50
000
ASUS43 KEAX 040610
RWREAX

WEATHER ROUNDUP FOR EASTERN KANSAS AND NORTHWEST MISSOURI
NATIONAL WEATHER SERVICE KANSAS CITY/PLEASANT HILL MO
100 AM CDT FRI SEP 04 2015

KSZ040-057-103>105-MOZ028-029-037-043-040700-
...KANSAS CITY METROPOLITAN AREA...

CITY           SKY/WX    TMP DP  RH WIND       PRES   REMARKS
K.C. INTL      MOCLDY    74  67  78 S8        29.93R
6HR MIN TEMP:  73; 6HR MAX TEMP:  86;

K.C. DOWNTOWN  MOCLDY    79  68  69 SW6       29.92R
6HR MIN TEMP:  79; 6HR MAX TEMP:  88;

LEES SUMMIT    MOCLDY    77  67  71 S7        29.95R
6HR MIN TEMP:  77; 6HR MAX TEMP:  86;

OLATHE - IXD   PTCLDY    73  68  84 SE6       29.94S
6HR MIN TEMP:  72; 6HR MAX TEMP:  84;

OLATHE - OJC   PTCLDY    72  68  87 S5        29.93S
6HR MIN TEMP:  72; 6HR MAX TEMP:  83;

LAWRENCE       PTCLDY    71  68  90 SE6       29.92R

$$

MOZ001>008-011>017-020>025-030>033-038>040-044>046-053-054-040700-
...NORTHERN AND CENTRAL MISSOURI...

CITY           SKY/WX    TMP DP  RH WIND       PRES   REMARKS
ST. JOSEPH     PTCLDY    73  69  87 S5        29.91S
6HR MIN TEMP:  73; 6HR MAX TEMP:  85;

MOSBY          PTCLDY    72  68  88 CALM      29.93R
WARRENSBURG    PTCLDY    72  68  88 SE3       29.94S
WHITEMAN AFB   PTCLDY    73  68  82 S5        29.94R
6HR MIN TEMP:  73; 6HR MAX TEMP:  87;

CLINTON        PTCLDY    75  70  83 CALM      29.96R
SEDALIA        CLEAR     73  68  84 S7        29.97R
6HR MIN TEMP:  73; 6HR MAX TEMP:  87;

WARSAW         NOT AVBL
CHILLICOTHE      N/A     73  69  87 CALM      29.95R
6HR MIN TEMP:  73; 6HR MAX TEMP:  87;

KIRKSVILLE     CLEAR     72  67  84 S5        29.96R
6HR MIN TEMP:  72; 6HR MAX TEMP:  85;


$$

MOZ041-047>049-056>058-063>065-088>090-097-040700-
...EASTERN AND SOUTHERN MISSOURI...

CITY           SKY/WX    TMP DP  RH WIND       PRES   REMARKS
ST. LOUIS INTL CLEAR     79  69  71 CALM      29.97R
6HR MIN TEMP:  79; 6HR MAX TEMP:  90;

SPIRIT OF STL  CLEAR     72  71  97 CALM      29.95R
COLUMBIA       CLEAR     75  69  81 SE6       29.97R
JEFFERSON CITY CLEAR     72  69  90 SE6       29.95R
ROLLA          CLEAR     73  68  84 S6        29.98R
OSAGE BEACH    CLEAR     72  66  83 S3        29.98R
SPRINGFIELD    CLEAR     74  68  81 SE7       29.98R
BRANSON        CLEAR     73  66  78 CALM      30.00S
JOPLIN         CLEAR     76  68  76 SE8       29.96R
WEST PLAINS    CLEAR     70  67  90 CALM      30.02R

$$

IAZ060-094-KSZ022-034>040-054-083-096-NEZ052-066-093-040700-
...KANSAS...SOUTHEAST NEBRASKA AND IOWA...

CITY           SKY/WX    TMP DP  RH WIND       PRES   REMARKS
TOPEKA         CLEAR     76  68  76 SE8       29.90S
6HR MIN TEMP:  75; 6HR MAX TEMP:  86;

MANHATTAN      MOCLDY    78  68  71 S6        29.87S
EMPORIA        MOCLDY    74  68  81 S10       29.91S
CHANUTE        PTCLDY    73  68  84 SE7       29.93S
WICHITA        CLOUDY    77  65  66 S13       29.88S
OMAHA          PTCLDY    79  68  69 S14       29.85S
LINCOLN        PTCLDY    79  67  66 S13       29.85R
FALLS CITY     PTCLDY    75  68  78 S7        29.88S
LAMONI         CLEAR     73  68  84 S7        29.93S
DES MOINES     PTCLDY    78  68  71 SE7       29.92R

$$



USA.gov is the U.S. government's official web portal to all federal, state and local government web resources and services.